Regional Weather Roundup
Issued by NWS

Home | Current Version | Previous Version | Text Only | Print | Product List | Glossary On
Versions: 1 2 3 4 5 6 7 8 9 10 11 12 13 14 15 16 17 18 19 20 21 22 23 24 25 26 27 28 29 30 31 32 33 34 35 36 37 38 39 40 41 42 43 44 45 46 47 48 49 50
000
ASUS45 KBOI 300810
RWRID

IDAHO REGIONAL WEATHER ROUNDUP
NATIONAL WEATHER SERVICE BOISE ID
200 AM MDT THU JUL 30 2015

NOTE: "FAIR" INDICATES FEW OR NO CLOUDS BELOW 12000 FEET
WITH NO SIGNIFICANT WEATHER AND/OR OBSTRUCTIONS TO VISIBILITY

IDZ012-014-300900-
SOUTHWEST IDAHO


CITY           SKY/WX    TMP DP  RH WIND       PRES   REMARKS
BOISE          CLEAR     67  38  34 SE8       30.16S
CALDWELL       CLEAR     57  39  51 N6        30.16S
MOUNTAIN HOME  CLEAR     64  33  31 NW3       30.17R
$$

IDZ016-017-300900-
SOUTHCENTRAL IDAHO


CITY           SKY/WX    TMP DP  RH WIND       PRES   REMARKS
BURLEY         CLEAR     54  43  66 S3        30.24S
JEROME         CLEAR     60  32  34 E6        30.25R
TWIN FALLS     CLEAR     64  32  30 S12       30.22R
$$

IDZ019>023-300900-
SOUTHEAST IDAHO


CITY           SKY/WX    TMP DP  RH WIND       PRES   REMARKS
IDAHO FALLS    CLEAR     46  41  82 N5        30.31R
POCATELLO      CLEAR     47  42  83 CALM      30.29R
REXBURG        CLEAR     49  42  77 NE5       30.33S
$$

IDZ006-010-011-018-031-032-300900-
CENTRAL IDAHO MOUNTAINS


CITY           SKY/WX    TMP DP  RH WIND       PRES   REMARKS
MCCALL         CLEAR     51  39  63 CALM      30.31
HAILEY         CLEAR     54  36  50 NW9       30.35S
STANLEY          N/A     45  33  63 S7        30.43R
SALMON         CLEAR     54  45  71 CALM      30.28R
CHALLIS        CLEAR     57  41  55 CALM      30.33R
$$

IDZ002-004-006-007-026-300900-
NORTHERN IDAHO


CITY           SKY/WX    TMP DP  RH WIND       PRES   REMARKS
LEWISTON       CLEAR     70  33  25 SE5       30.11R
LOWELL           N/A     58  50  75 NW5       30.21R
COEUR D`ALENE  CLEAR     63  43  48 E3        30.15S
MULLAN PASS    CLEAR     60  28  29 CALM      30.36S
$$


USA.gov is the U.S. government's official web portal to all federal, state and local government web resources and services.